Regional Weather Roundup
Issued by NWS Sioux Falls, SD

Home | Current Version | Previous Version | Graphics & Text | Print | Product List | Glossary Off
Versions: 1 2 3 4 5 6 7 8 9 10 11 12 13 14 15 16 17 18 19 20 21 22 23 24 25 26 27 28 29 30 31 32 33 34 35 36 37 38 39 40 41 42 43 44 45 46 47 48 49 50

000
ASUS43 KFSD 220102
RWRFSD

WEATHER ROUNDUP FOR SE SOUTH DAKOTA/SW MINNESOTA/NW IOWA
NATIONAL WEATHER SERVICE SIOUX FALLS SD
700 PM CST SUN DEC 21 2014

NOTE: "FAIR" INDICATES FEW OR NO CLOUDS BELOW 12,000 FEET WITH NO
SIGNIFICANT WEATHER AND OR OBSTRUCTIONS TO VISIBILITY.


SDZ038>040-050-052>070-220200-
SOUTHEAST SOUTH DAKOTA

CITY           SKY/WX    TMP DP  RH WIND       PRES   REMARKS
CHAMBERLAIN    NOT AVBL
HURON          CLOUDY    35  32  88 S16       29.48S WCI  25
MADISON        CLOUDY    34  34 100 S16G22    29.55F FOG     WCI  23
MITCHELL       PTCLDY    36  33  89 S16       29.49F
SIOUX FALLS    CLOUDY    38  36  92 S18       29.58S FOG
WINNER         FAIR      42  31  64 S13       29.40S
YANKTON        CLOUDY    39  36  87 SE12      29.58F
$$

MNZ071-072-080-081-089-090-097-098-220200-
SOUTHWEST MINNESOTA

CITY           SKY/WX    TMP DP  RH WIND       PRES   REMARKS
FAIRMONT       CLOUDY    37  34  87 S18G26    29.68S
JACKSON        CLOUDY    37  36  93 S20       29.66F FOG
LUVERNE        CLOUDY    37  36  93 S15       29.62S FOG
MARSHALL       CLOUDY    37  34  87 S15G21    29.60S
MONTEVIDEO     CLOUDY    36  36 100 S9        29.62R FOG
PIPESTONE      FOG       36  36 100 S17       29.58S VSB 1
REDWOOD FALLS  CLOUDY    37  36  96 SE15      29.64S FOG
TRACY          CLOUDY    38  37  96 S22G30    29.60S FOG
WINDOM         CLOUDY    37  37 100 S17G24    29.64S FOG
WORTHINGTON    CLOUDY    37 -11  12 S17       29.63F
$$

IAZ001>003-012>014-020>022-031-032-NEZ013-014-SDZ071-220200-
NORTHWEST IOWA

CITY           SKY/WX    TMP DP  RH WIND       PRES   REMARKS
DENISON        CLOUDY    39  39 100 S15G24    29.68S FOG
ESTHERVILLE    CLOUDY    37  36  96 S21       29.67F FOG
SIOUX CITY     CLOUDY    41  38  89 S15       29.66S FOG
SPENCER        CLOUDY    38  36  92 S20       29.67F FOG
$$

ABBREVIATIONS USED IN REMARKS
   TC - TEMPERATURE IN CELSIUS
  WCI - WIND CHILL INDEX
   HX - HEAT INDEX
  VSB - VISIBILITY




USA.gov is the U.S. government's official web portal to all federal, state and local government web resources and services.